Weather in Gerga

Russia / Republic of Dagestan     42°20′54″N   47°57′42″E
temp.,
°C
wind,
m/s
gust,
m/s
humid.,
%
clouds,
%
prec.,
mm/h
press.,
hPa
HPBL,
m
17 october, sun
sun1700:00+16nne119577 0.0 101380
03:00+16nnw249089 0.0 1012220
06:00+15nw249142 0.0 1013179
09:00+18nnw467638 0.0 1013645
12:00+20n456612 0.0 1012823
15:00+20nne32688 0.0 1011493
18:00+16ese128611 0.0 101298
21:00+16wnw00898 0.0 101219
18 october, mon
mon1800:00+15nnw22905 0.0 101355
03:00+15w118952 0.0 101311
06:00+15nw118951 0.1 101416
09:00+18ese117893 0.2 1014325
12:00+20e3363100 0.0 1013904
15:00+19ese2266100 0.1 1013602
18:00+17s2275100 0.1 101488
21:00+18w1169100 0.3 101419
19 october, tue
tue1900:00+17nnw237048 0.1 101564
03:00+16wnw127599 0.1 101592
06:00+15ssw1176100 0.0 101612
09:00+17e1169100 0.0 1017321
12:00+17ese2273100 0.2 1016356
15:00+15nne3483100 0.6 1016361
18:00+14n4588100 0.3 1017470
21:00+13n2286100 0.4 1017360
20 october, wed
wed2000:00+13n2390100 0.2 1016370
03:00+12n3589100 1.2 1015460
06:00+12nw3587100 0.4 1016422
09:00+10nnw71378100 1.9 1019728
12:00+11nnw61360100 0.2 10201549
15:00+11nnw61066100 0.5 10221405
18:00+10nw3971100 1.3 10241008
21:00+9nw39636 1.7 1026538
21 october, thu
thu2100:00+8w266740 0.0 1027415
03:00+6wnw14725 0.0 1027212
06:00+6w23745 0.0 1029160
09:00+9nnw22606 0.0 1030744
12:00+10n225296 0.0 10291393
15:00+11nne334995 0.0 10281275
18:00+9ne015436 0.0 1029272
21:00+8wsw11596 0.0 102968